Regional Weather Roundup
Issued by NWS

Home | Current Version | Previous Version | Text Only | Print | Product List | Glossary Off
Versions: 1 2 3 4 5 6 7 8 9 10 11 12 13 14 15 16 17 18 19 20 21 22 23 24 25 26 27 28 29 30 31 32 33 34 35 36 37 38 39 40 41 42 43 44 45 46 47 48 49 50

000
ASUS43 KDMX 231501
RWRIA

WEATHER ROUNDUP FOR IOWA
NATIONAL WEATHER SERVICE DES MOINES IA
900 AM CST THU NOV 23 2017

NOTE: "FAIR" INDICATES FEW OR NO CLOUDS BELOW 12,000 FEET WITH NO
SIGNIFICANT WEATHER AND/OR OBSTRUCTIONS TO VISIBILITY.

* - THESE STATIONS ARE NOT NWS STATIONS...THUS NOT UNDER NWS
QUALITY CONTROL.  THEY ALSO DO NOT REPORT WEATHER SUCH
AS PRECIPITATION OR FOG.

IAZ001>003-012>014-020>022-031>034-043>046-231600-
   NORTHWEST IOWA

CITY           SKY/WX    TMP DP  RH WIND       PRES   REMARKS
CARROLL *      CLOUDY    39  28  65 NW15      30.00R WCI  31
CHEROKEE *     CLOUDY    34  29  82 CALM      30.00F
DENISON *      CLOUDY    37  28  70 W5        30.03R WCI  34
LE MARS *      CLOUDY    36  28  75 CALM      30.00F
ORANGE CITY *  CLOUDY    36  32  87 NW3       29.98F
SHELDON *      CLOUDY    32  27  80 NW3       29.97F
SIOUX CITY     CLOUDY    36  31  82 NW6       30.02S WCI  31
SPENCER        CLOUDY    30  24  78 W7        30.00R WCI  23
STORM LAKE *   CLOUDY    34  27  75 NW8       29.99F WCI  27
$$

IAZ055>058-069>071-079>083-090>094-231600-
   SOUTHWEST IOWA

CITY           SKY/WX    TMP DP  RH WIND       PRES   REMARKS
ATLANTIC *     CLOUDY    32  27  80 CALM      30.02R
AUDUBON *      CLOUDY    37  30  75 NW6       30.01R WCI  33
CLARINDA *     SUNNY     36  27  69 CALM      30.04S
COUNCIL BLFS * SUNNY     41  34  75 N7        30.02S
CRESTON *      SUNNY     37  27  65 NW9       30.01R WCI  31
HARLAN  *      CLOUDY    37  34  87 NW3       30.05R
LAMONI         SUNNY     37  25  61 W9        29.99S WCI  30
RED OAK *      SUNNY     39  30  70 CALM      30.03R
SHENANDOAH *   SUNNY     39  30  70 CALM      30.04S
$$

IAZ047>049-059>061-072>074-084-231600-
   CENTRAL IOWA

CITY           SKY/WX    TMP DP  RH WIND       PRES   REMARKS
AMES           CLOUDY    36  26  67 NW9       29.98R WCI  29
ANKENY *       CLOUDY    37  25  60 NW8       30.00R WCI  31
BOONE *        CLOUDY    36  25  64 N13       29.97R WCI  27
CHARITON *     CLOUDY    36  23  60 W7        29.98S WCI  30
DES MOINES     PTSUNNY   38  25  59 NW8       29.99R WCI  32
GRINNELL*      CLOUDY    34  23  64 W7        29.98R WCI  28
KNOXVILLE *    CLOUDY    36  23  60 W8        29.97S WCI  29
MARSHALLTOWN   CLOUDY    33  23  66 NW9       29.96S WCI  25
NEWTON *       CLOUDY    34  23  64 W6        29.98R WCI  29
PELLA *        CLOUDY    36  24  62 W8        29.99S WCI  30
PERRY *          N/A     37  26  64 N7        29.99S WCI  31
$$

IAZ004>006-015-016-023>025-035-036-231600-
   NORTH CENTRAL IOWA

CITY           SKY/WX    TMP DP  RH WIND       PRES   REMARKS
ALGONA *       CLOUDY    32  27  80 N7        29.97S WCI  26
CLARION *      CLOUDY    32  25  74 NW12      29.98R WCI  23
ESTHERVILLE    SUNNY     30  24  78 NW8       29.97S WCI  22
FORT DODGE *   CLOUDY    33  25  72 NW7       29.99R WCI  27
MASON CITY     CLOUDY    31  21  66 NW9       29.97R WCI  23
FOREST CITY *    N/A     32  23  69 NW8       29.97R WCI  25
WEBSTER CITY * CLOUDY    34  25  69 NW9       29.97R WCI  26
IOWA FALLS *     N/A     32  24  72 W6        29.97S WCI  26
$$

IAZ007>011-017>019-026>030-037>042-050>054-066-231600-
   NORTHEAST IOWA

CITY           SKY/WX    TMP DP  RH WIND       PRES   REMARKS
CEDAR RAPIDS   SUNNY     34  22  61 W8        29.96S WCI  27
CHARLES CITY * SUNNY     30  21  69 NW7       29.96R WCI  23
CLINTON *      SUNNY     35  23  61 SW9       29.99F WCI  28
DECORAH *      SUNNY     28  19  69 W5        29.93F WCI  23
DUBUQUE        SUNNY     31  20  63 SW9       29.96S WCI  23
MONTICELLO *   SUNNY     34  21  60 VRB3      29.96F
OELWEIN *      SUNNY     32  23  69 W6        29.95S WCI  26
WATERLOO       SUNNY     32  20  61 NW6       29.97R WCI  26
$$

IAZ064-065-067-068-078-231600-
   EAST CENTRAL IOWA

CITY           SKY/WX    TMP DP  RH WIND       PRES   REMARKS
DAVENPORT      SUNNY     34  21  59 SW10      30.00F WCI  26
IOWA CITY      SUNNY     34  22  61 SW6       30.00S WCI  29
MT. PLEASANT * SUNNY     35  22  59 SW12      29.99F WCI  27
MUSCATINE *    SUNNY     36  21  55 SW7       30.00F WCI  30
QUAD CITIES    SUNNY     36  21  54 SW6       29.99S WCI  31
$$

IAZ062-063-075>077-085>089-095>099-231600-
   SOUTHEAST IOWA

CITY           SKY/WX    TMP DP  RH WIND       PRES   REMARKS
BURLINGTON     SUNNY     36  24  62 SW8       30.00S WCI  30
FAIRFIELD *    SUNNY     36  21  55 SW8       29.97F WCI  29
FORT MADISON * SUNNY     37  23  56 SW7       30.00F WCI  32
KEOKUK *       SUNNY     36  23  60 SW12      30.01R WCI  27
OSKALOOSA *      N/A     36  25  62 W10       29.98S WCI  29
OTTUMWA        SUNNY     37  23  56 W10       29.97F WCI  30
WASHINGTON *   SUNNY     36  23  60 SW8       29.99S WCI  29
$$

ABBREVIATIONS USED IN REMARKS
   TC - TEMPERATURES IN CELSIUS
  WCI - WIND CHILL INDEX
   HX - HEAT INDEX
  VSB - VISIBILITY
$$





USA.gov is the U.S. government's official web portal to all federal, state and local government web resources and services.